| time (UTC) | temp F | wind direction | speed MPH | gust MPH | rain 1hr in | rain 24hr in | rain mn in | humidity % | barometer mb |
| 20260906210935 | 87 | 230 | 6.0 | 9.0 | 0.00 | 0.00 | 0.00 | 24 | 1247.4 |
| 20260906210431 | 87 | 192 | 6.0 | 14.0 | 0.00 | 0.00 | 0.00 | 23 | 1247.7 |
| 20260906205924 | 88 | 257 | 3.0 | 8.0 | 0.00 | 0.00 | 0.00 | 20 | 1247.7 |
| 20260906205421 | 87 | 184 | 7.0 | 12.0 | 0.00 | 0.00 | 0.00 | 23 | 1247.4 |
| 20260906204917 | 87 | 222 | 8.0 | 15.0 | 0.00 | 0.00 | 0.00 | 22 | 1247.7 |
| 20260906204415 | 86 | 183 | 8.0 | 11.0 | 0.00 | 0.00 | 0.00 | 23 | 1247.9 |
| 20260906203915 | 86 | 230 | 11.0 | 17.0 | 0.00 | 0.00 | 0.00 | 24 | 1247.7 |
| 20260906203410 | 86 | 226 | 9.0 | 13.0 | 0.00 | 0.00 | 0.00 | 26 | 1247.8 |
| 20260906202908 | 86 | 205 | 8.0 | 18.0 | 0.00 | 0.00 | 0.00 | 25 | 1248.0 |
| 20260906202408 | 86 | 263 | 6.0 | 14.0 | 0.00 | 0.00 | 0.00 | 22 | 1247.9 |
| 20260906201907 | 86 | 235 | 11.0 | 17.0 | 0.00 | 0.00 | 0.00 | 21 | 1248.3 |
| 20260906201402 | 87 | 230 | 6.0 | 12.0 | 0.00 | 0.00 | 0.00 | 24 | 1248.0 |
| 20260906200857 | 89 | 221 | 15.0 | 17.0 | 0.00 | 0.00 | 0.00 | 21 | 1248.2 |
| 20260906200354 | 88 | 238 | 7.0 | 9.0 | 0.00 | 0.00 | 0.00 | 22 | 1248.0 |
| 20260906195854 | 87 | 242 | 7.0 | 11.0 | 0.00 | 0.00 | 0.00 | 22 | 1247.9 |
| 20260906195350 | 87 | 228 | 11.0 | 13.0 | 0.00 | 0.00 | 0.00 | 22 | 1248.2 |
| 20260906194846 | 87 | 168 | 3.0 | 12.0 | 0.00 | 0.00 | 0.00 | 22 | 1248.2 |
| 20260906194341 | 87 | 142 | 2.0 | 6.0 | 0.00 | 0.00 | 0.00 | 21 | 1248.0 |
| 20260906193836 | 86 | 218 | 9.0 | 12.0 | 0.00 | 0.00 | 0.00 | 21 | 1248.2 |
| 20260906193332 | 86 | 230 | 8.0 | 15.0 | 0.00 | 0.00 | 0.00 | 22 | 1248.2 |
| 20260906192827 | 87 | 219 | 7.0 | 8.0 | 0.00 | 0.00 | 0.00 | 23 | 1248.3 |
| 20260906192327 | 86 | 235 | 11.0 | 14.0 | 0.00 | 0.00 | 0.00 | 24 | 1248.2 |
| 20260906191827 | 87 | 257 | 4.0 | 12.0 | 0.00 | 0.00 | 0.00 | 25 | 1248.4 |
| 20260906191327 | 86 | 238 | 4.0 | 12.0 | 0.00 | 0.00 | 0.00 | 25 | 1248.3 |
| 20260906190821 | 87 | 231 | 9.0 | 10.0 | 0.00 | 0.00 | 0.00 | 25 | 1248.4 |
| 20260906190321 | 87 | 208 | 6.0 | 8.0 | 0.00 | 0.00 | 0.00 | 23 | 1248.5 |
| 20260906185820 | 87 | 263 | 4.0 | 6.0 | 0.00 | 0.00 | 0.00 | 24 | 1248.7 |
| 20260906185320 | 87 | 254 | 3.0 | 7.0 | 0.00 | 0.00 | 0.00 | 26 | 1248.6 |
| 20260906184814 | 87 | 1 | 0.0 | 4.0 | 0.00 | 0.00 | 0.00 | 27 | 1248.9 |
| 20260906184309 | 86 | 196 | 2.0 | 5.0 | 0.00 | 0.00 | 0.00 | 28 | 1248.9 |
| 20260906183805 | 87 | 168 | 2.0 | 4.0 | 0.00 | 0.00 | 0.00 | 26 | 1248.9 |
| 20260906183301 | 85 | 237 | 5.0 | 6.0 | 0.00 | 0.00 | 0.00 | 27 | 1248.9 |
| 20260906182801 | 85 | 155 | 3.0 | 8.0 | 0.00 | 0.00 | 0.00 | 27 | 1249.2 |
| 20260906182257 | 86 | 215 | 8.0 | 11.0 | 0.00 | 0.00 | 0.00 | 26 | 1249.3 |
| 20260906181752 | 86 | 244 | 3.0 | 4.0 | 0.00 | 0.00 | 0.00 | 27 | 1249.2 |
| 20260906181249 | 84 | 240 | 5.0 | 6.0 | 0.00 | 0.00 | 0.00 | 27 | 1249.2 |
| 20260906180748 | 86 | 253 | 3.0 | 4.0 | 0.00 | 0.00 | 0.00 | 26 | 1249.6 |
| 20260906180244 | 86 | 240 | 4.0 | 7.0 | 0.00 | 0.00 | 0.00 | 27 | 1249.6 |
| 20260906175741 | 85 | 172 | 2.0 | 4.0 | 0.00 | 0.00 | 0.00 | 26 | 1249.6 |
| 20260906175237 | 84 | 216 | 6.0 | 7.0 | 0.00 | 0.00 | 0.00 | 28 | 1249.6 |
| 20260906174735 | 85 | 201 | 2.0 | 6.0 | 0.00 | 0.00 | 0.00 | 29 | 1249.7 |
| 20260906174235 | 84 | 223 | 4.0 | 7.0 | 0.00 | 0.00 | 0.00 | 29 | 1249.7 |
| 20260906173730 | 83 | 199 | 5.0 | 8.0 | 0.00 | 0.00 | 0.00 | 30 | 1249.9 |
| 20260906173226 | 83 | 188 | 4.0 | 7.0 | 0.00 | 0.00 | 0.00 | 32 | 1249.8 |
| 20260906172725 | 82 | 208 | 4.0 | 5.0 | 0.00 | 0.00 | 0.00 | 32 | 1249.8 |
| 20260906172220 | 82 | 204 | 8.0 | 11.0 | 0.00 | 0.00 | 0.00 | 32 | 1250.2 |
| 20260906171721 | 82 | 238 | 7.0 | 11.0 | 0.00 | 0.00 | 0.00 | 34 | 1250.1 |
| 20260906171216 | 81 | 220 | 5.0 | 9.0 | 0.00 | 0.00 | 0.00 | 34 | 1250.2 |
| 20260906170712 | 81 | 205 | 4.0 | 7.0 | 0.00 | 0.00 | 0.00 | 36 | 1250.2 |
| 20260906170212 | 80 | 195 | 5.0 | 12.0 | 0.00 | 0.00 | 0.00 | 36 | 1250.2 |
| 20260906165708 | 80 | 209 | 4.0 | 12.0 | 0.00 | 0.00 | 0.00 | 37 | 1250.2 |
| 20260906165203 | 80 | 200 | 6.0 | 8.0 | 0.00 | 0.00 | 0.00 | 38 | 1250.2 |
| 20260906164702 | 79 | 228 | 6.0 | 7.0 | 0.00 | 0.00 | 0.00 | 39 | 1250.2 |
| 20260906164158 | 80 | 190 | 3.0 | 6.0 | 0.00 | 0.00 | 0.00 | 40 | 1250.3 |
| 20260906163654 | 80 | 208 | 6.0 | 8.0 | 0.00 | 0.00 | 0.00 | 40 | 1250.5 |
| 20260906163150 | 80 | 186 | 3.0 | 6.0 | 0.00 | 0.00 | 0.00 | 40 | 1250.6 |
| 20260906162647 | 79 | 206 | 2.0 | 4.0 | 0.00 | 0.00 | 0.00 | 41 | 1250.6 |
| 20260906162146 | 77 | 158 | 2.0 | 5.0 | 0.00 | 0.00 | 0.00 | 44 | 1250.6 |
| 20260906161641 | 76 | 219 | 9.0 | 14.0 | 0.00 | 0.00 | 0.00 | 43 | 1250.8 |
| 20260906161140 | 77 | 217 | 6.0 | 11.0 | 0.00 | 0.00 | 0.00 | 45 | 1250.8 |
| 20260906160639 | 76 | 222 | 5.0 | 11.0 | 0.00 | 0.00 | 0.00 | 47 | 1250.5 |
| 20260906160138 | 75 | 227 | 6.0 | 15.0 | 0.00 | 0.00 | 0.00 | 47 | 1250.8 |
| 20260906155636 | 75 | 220 | 17.0 | 19.0 | 0.00 | 0.00 | 0.00 | 46 | 1250.6 |
| 20260906155132 | 75 | 208 | 13.0 | 15.0 | 0.00 | 0.00 | 0.00 | 46 | 1250.6 |
| 20260906154627 | 75 | 211 | 7.0 | 11.0 | 0.00 | 0.00 | 0.00 | 46 | 1250.3 |
| 20260906154126 | 74 | 232 | 10.0 | 13.0 | 0.00 | 0.00 | 0.00 | 47 | 1250.6 |
| 20260906153625 | 74 | 196 | 5.0 | 13.0 | 0.00 | 0.00 | 0.00 | 47 | 1250.6 |
| 20260906153120 | 73 | 205 | 12.0 | 14.0 | 0.00 | 0.00 | 0.00 | 48 | 1250.8 |
| 20260906152615 | 73 | 203 | 11.0 | 17.0 | 0.00 | 0.00 | 0.00 | 49 | 1250.6 |
| 20260906152115 | 74 | 234 | 12.0 | 14.0 | 0.00 | 0.00 | 0.00 | 48 | 1250.5 |
| 20260906151610 | 73 | 253 | 7.0 | 16.0 | 0.00 | 0.00 | 0.00 | 49 | 1250.5 |
| 20260906151106 | 73 | 224 | 9.0 | 15.0 | 0.00 | 0.00 | 0.00 | 50 | 1250.4 |
| 20260906150601 | 73 | 218 | 9.0 | 16.0 | 0.00 | 0.00 | 0.00 | 50 | 1250.5 |
| 20260906150056 | 72 | 233 | 11.0 | 17.0 | 0.00 | 0.00 | 0.00 | 51 | 1250.5 |
| 20260906145554 | 72 | 230 | 12.0 | 18.0 | 0.00 | 0.00 | 0.00 | 51 | 1250.4 |
| 20260906145050 | 72 | 231 | 11.0 | 15.0 | 0.00 | 0.00 | 0.00 | 51 | 1250.5 |
| 20260906144544 | 72 | 219 | 15.0 | 21.0 | 0.00 | 0.00 | 0.00 | 51 | 1250.6 |
| 20260906144039 | 71 | 226 | 9.0 | 18.0 | 0.00 | 0.00 | 0.00 | 50 | 1250.5 |
| 20260906143534 | 71 | 221 | 11.0 | 16.0 | 0.00 | 0.00 | 0.00 | 49 | 1250.6 |
| 20260906143032 | 71 | 231 | 11.0 | 16.0 | 0.00 | 0.00 | 0.00 | 49 | 1250.4 |
| 20260906142530 | 71 | 233 | 11.0 | 15.0 | 0.00 | 0.00 | 0.00 | 48 | 1250.5 |
| 20260906142026 | 71 | 221 | 9.0 | 16.0 | 0.00 | 0.00 | 0.00 | 48 | 1250.6 |
| 20260906141525 | 70 | 220 | 12.0 | 16.0 | 0.00 | 0.00 | 0.00 | 48 | 1250.5 |
| 20260906141021 | 70 | 223 | 14.0 | 18.0 | 0.00 | 0.00 | 0.00 | 50 | 1250.5 |
| 20260906140520 | 70 | 201 | 6.0 | 14.0 | 0.00 | 0.00 | 0.00 | 50 | 1250.4 |
| 20260906140020 | 69 | 244 | 7.0 | 10.0 | 0.00 | 0.00 | 0.00 | 52 | 1250.5 |
| 20260906135517 | 69 | 231 | 2.0 | 17.0 | 0.00 | 0.00 | 0.00 | 50 | 1250.5 |
| 20260906135013 | 69 | 237 | 12.0 | 12.0 | 0.00 | 0.00 | 0.00 | 50 | 1250.8 |
| 20260906134508 | 69 | 224 | 2.0 | 11.0 | 0.00 | 0.00 | 0.00 | 49 | 1250.4 |
| 20260906134008 | 69 | 225 | 14.0 | 19.0 | 0.00 | 0.00 | 0.00 | 48 | 1250.5 |
| 20260906133504 | 68 | 246 | 9.0 | 14.0 | 0.00 | 0.00 | 0.00 | 50 | 1250.4 |
| 20260906132959 | 68 | 216 | 6.0 | 15.0 | 0.00 | 0.00 | 0.00 | 50 | 1250.4 |
| 20260906132454 | 67 | 232 | 10.0 | 14.0 | 0.00 | 0.00 | 0.00 | 50 | 1250.3 |
| 20260906131949 | 67 | 223 | 6.0 | 10.0 | 0.00 | 0.00 | 0.00 | 50 | 1250.3 |
| 20260906131445 | 67 | 232 | 13.0 | 14.0 | 0.00 | 0.00 | 0.00 | 50 | 1250.3 |
| 20260906130940 | 67 | 243 | 7.0 | 13.0 | 0.00 | 0.00 | 0.00 | 52 | 1250.2 |
| 20260906130439 | 67 | 241 | 7.0 | 12.0 | 0.00 | 0.00 | 0.00 | 53 | 1250.5 |
| 20260906125934 | 67 | 227 | 6.0 | 14.0 | 0.00 | 0.00 | 0.00 | 54 | 1250.4 |
| 20260906125432 | 66 | 220 | 8.0 | 9.0 | 0.00 | 0.00 | 0.00 | 57 | 1250.4 |
| 20260906124931 | 66 | 238 | 8.0 | 13.0 | 0.00 | 0.00 | 0.00 | 58 | 1250.3 |
| 20260906124428 | 66 | 215 | 6.0 | 12.0 | 0.00 | 0.00 | 0.00 | 59 | 1250.3 |
| 20260906123927 | 66 | 241 | 7.0 | 9.0 | 0.00 | 0.00 | 0.00 | 61 | 1250.1 |
| 20260906123426 | 65 | 203 | 6.0 | 7.0 | 0.00 | 0.00 | 0.00 | 62 | 1250.5 |
| 20260906122921 | 64 | 210 | 2.0 | 2.0 | 0.00 | 0.00 | 0.00 | 63 | 1250.3 |
| 20260906122421 | 65 | 241 | 2.0 | 3.0 | 0.00 | 0.00 | 0.00 | 62 | 1250.4 |
| 20260906121919 | 66 | 233 | 4.0 | 5.0 | 0.00 | 0.00 | 0.00 | 61 | 1250.4 |
| 20260906121414 | 66 | 212 | 4.0 | 5.0 | 0.00 | 0.00 | 0.00 | 61 | 1250.3 |
| 20260906120911 | 66 | 246 | 4.0 | 7.0 | 0.00 | 0.00 | 0.00 | 61 | 1250.4 |
| 20260906120406 | 66 | 216 | 2.0 | 4.0 | 0.00 | 0.00 | 0.00 | 61 | 1250.3 |
| 20260906115902 | 66 | 223 | 5.0 | 9.0 | 0.00 | 0.00 | 0.00 | 60 | 1250.4 |
| 20260906115357 | 65 | 246 | 6.0 | 6.0 | 0.00 | 0.00 | 0.00 | 62 | 1250.4 |
| 20260906114856 | 64 | 236 | 4.0 | 6.0 | 0.00 | 0.00 | 0.00 | 64 | 1250.5 |
| 20260906114352 | 63 | 219 | 0.0 | 3.0 | 0.00 | 0.00 | 0.00 | 66 | 1250.3 |
| 20260906113847 | 62 | 142 | 0.0 | 3.0 | 0.00 | 0.00 | 0.00 | 67 | 1250.4 |
| 20260906113346 | 63 | 190 | 1.0 | 2.0 | 0.00 | 0.00 | 0.00 | 67 | 1250.6 |
| 20260906112842 | 62 | 129 | 0.0 | 0.0 | 0.00 | 0.00 | 0.00 | 69 | 1250.4 |
| 20260906112338 | 63 | 224 | 8.0 | 9.0 | 0.00 | 0.00 | 0.00 | 67 | 1250.8 |
| 20260906111838 | 62 | 230 | 3.0 | 4.0 | 0.00 | 0.00 | 0.00 | 69 | 1250.6 |
| 20260906111337 | 63 | 325 | 0.0 | 1.0 | 0.00 | 0.00 | 0.00 | 69 | 1250.5 |
| 20260906110832 | 63 | 269 | 0.0 | 2.0 | 0.00 | 0.00 | 0.00 | 68 | 1250.8 |
| 20260906110328 | 63 | 38 | 0.0 | 2.0 | 0.00 | 0.00 | 0.00 | 68 | 1250.8 |
| 20260906105827 | 64 | 269 | 0.0 | 1.0 | 0.00 | 0.00 | 0.00 | 67 | 1250.6 |
| 20260906105323 | 64 | 324 | 0.0 | 3.0 | 0.00 | 0.00 | 0.00 | 66 | 1250.6 |
| 20260906104819 | 63 | 259 | 4.0 | 4.0 | 0.00 | 0.00 | 0.00 | 68 | 1250.8 |
| 20260906104317 | 63 | 311 | 2.0 | 2.0 | 0.00 | 0.00 | 0.00 | 69 | 1250.5 |
| 20260906103816 | 64 | 25 | 1.0 | 2.0 | 0.00 | 0.00 | 0.00 | 67 | 1250.8 |
| 20260906103315 | 65 | 230 | 0.0 | 3.0 | 0.00 | 0.00 | 0.00 | 66 | 1250.9 |
| 20260906102811 | 65 | 187 | 2.0 | 6.0 | 0.00 | 0.00 | 0.00 | 65 | 1250.6 |
| 20260906102309 | 65 | 239 | 4.0 | 5.0 | 0.00 | 0.00 | 0.00 | 65 | 1250.5 |
| 20260906101805 | 65 | 275 | 2.0 | 4.0 | 0.00 | 0.00 | 0.00 | 65 | 1250.6 |
| 20260906101300 | 66 | 266 | 3.0 | 9.0 | 0.00 | 0.00 | 0.00 | 64 | 1250.5 |
| 20260906100755 | 66 | 265 | 4.0 | 7.0 | 0.00 | 0.00 | 0.00 | 65 | 1250.8 |
| 20260906100254 | 66 | 240 | 2.0 | 5.0 | 0.00 | 0.00 | 0.00 | 64 | 1250.6 |
| 20260906095750 | 66 | 199 | 5.0 | 6.0 | 0.00 | 0.00 | 0.00 | 64 | 1250.5 |
| 20260906095245 | 66 | 240 | 6.0 | 11.0 | 0.00 | 0.00 | 0.00 | 64 | 1250.5 |
| 20260906094744 | 66 | 231 | 4.0 | 11.0 | 0.00 | 0.00 | 0.00 | 65 | 1250.5 |
| 20260906094239 | 66 | 255 | 4.0 | 13.0 | 0.00 | 0.00 | 0.00 | 65 | 1250.4 |
| 20260906093736 | 66 | 239 | 6.0 | 11.0 | 0.00 | 0.00 | 0.00 | 66 | 1250.5 |
| 20260906093231 | 66 | 240 | 5.0 | 9.0 | 0.00 | 0.00 | 0.00 | 65 | 1250.2 |
| 20260906092727 | 66 | 271 | 9.0 | 11.0 | 0.00 | 0.00 | 0.00 | 66 | 1250.3 |
| 20260906092226 | 65 | 285 | 1.0 | 4.0 | 0.00 | 0.00 | 0.00 | 66 | 1250.4 |
| 20260906091722 | 66 | 241 | 4.0 | 5.0 | 0.00 | 0.00 | 0.00 | 65 | 1250.8 |
| 20260906091218 | 66 | 252 | 6.0 | 9.0 | 0.00 | 0.00 | 0.00 | 64 | 1250.4 |
| 20260906090715 | 66 | 213 | 13.0 | 14.0 | 0.00 | 0.00 | 0.00 | 64 | 1250.5 |
| 20260906090213 | 65 | 218 | 10.0 | 12.0 | 0.00 | 0.00 | 0.00 | 66 | 1250.5 |
| 20260906085713 | 65 | 240 | 4.0 | 8.0 | 0.00 | 0.00 | 0.00 | 66 | 1250.3 |
| 20260906085211 | 66 | 208 | 2.0 | 6.0 | 0.00 | 0.00 | 0.00 | 65 | 1250.4 |
| 20260906084707 | 66 | 252 | 4.0 | 11.0 | 0.00 | 0.00 | 0.00 | 65 | 1250.4 |
| 20260906084206 | 66 | 237 | 8.0 | 13.0 | 0.00 | 0.00 | 0.00 | 64 | 1250.6 |
| 20260906083702 | 66 | 240 | 8.0 | 9.0 | 0.00 | 0.00 | 0.00 | 64 | 1250.6 |
| 20260906083157 | 65 | 244 | 10.0 | 10.0 | 0.00 | 0.00 | 0.00 | 65 | 1250.6 |
| 20260906082652 | 65 | 212 | 5.0 | 13.0 | 0.00 | 0.00 | 0.00 | 66 | 1250.6 |
| 20260906082147 | 63 | 232 | 7.0 | 9.0 | 0.00 | 0.00 | 0.00 | 68 | 1250.8 |
| 20260906081643 | 61 | 229 | 2.0 | 8.0 | 0.00 | 0.00 | 0.00 | 73 | 1250.5 |
| 20260906081138 | 56 | 345 | 0.0 | 3.0 | 0.00 | 0.00 | 0.00 | 82 | 1250.9 |
| 20260906080635 | 56 | 183 | 2.0 | 2.0 | 0.00 | 0.00 | 0.00 | 83 | 1250.5 |
| 20260906080131 | 56 | 55 | 0.0 | 2.0 | 0.00 | 0.00 | 0.00 | 83 | 1250.4 |
| 20260906075630 | 57 | 129 | 0.0 | 0.0 | 0.00 | 0.00 | 0.00 | 83 | 1250.4 |
| 20260906075125 | 57 | 217 | 0.0 | 2.0 | 0.00 | 0.00 | 0.00 | 82 | 1250.3 |
| 20260906074620 | 57 | 6 | 0.0 | 0.0 | 0.00 | 0.00 | 0.00 | 82 | 1250.4 |
| 20260906074119 | 57 | 294 | 0.0 | 1.0 | 0.00 | 0.00 | 0.00 | 83 | 1250.5 |
| 20260906073614 | 57 | 269 | 0.0 | 1.0 | 0.00 | 0.00 | 0.00 | 84 | 1250.9 |
| 20260906073109 | 57 | 194 | 1.0 | 1.0 | 0.00 | 0.00 | 0.00 | 85 | 1250.8 |
| 20260906072604 | 57 | 135 | 0.0 | 0.0 | 0.00 | 0.00 | 0.00 | 85 | 1250.8 |
| 20260906072100 | 58 | 221 | 1.0 | 2.0 | 0.00 | 0.00 | 0.00 | 84 | 1250.6 |
| 20260906071557 | 58 | 354 | 0.0 | 1.0 | 0.00 | 0.00 | 0.00 | 84 | 1251.0 |
| 20260906071051 | 58 | 249 | 0.0 | 2.0 | 0.00 | 0.00 | 0.00 | 84 | 1251.0 |
| 20260906070548 | 58 | 353 | 0.0 | 1.0 | 0.00 | 0.00 | 0.00 | 83 | 1250.8 |
| 20260906070043 | 59 | 180 | 0.0 | 2.0 | 0.00 | 0.00 | 0.00 | 80 | 1250.5 |
| 20260906065542 | 60 | 44 | 1.0 | 2.0 | 0.00 | 0.00 | 0.00 | 79 | 1250.4 |
| 20260906065038 | 61 | 202 | 0.0 | 1.0 | 0.00 | 0.00 | 0.00 | 78 | 1250.5 |
| 20260906064534 | 62 | 217 | 0.0 | 0.0 | 0.00 | 0.00 | 0.00 | 78 | 1250.6 |
| 20260906064029 | 62 | 119 | 0.0 | 1.0 | 0.00 | 0.00 | 0.00 | 76 | 1250.9 |
| 20260906063524 | 63 | 256 | 0.0 | 0.0 | 0.00 | 0.00 | 0.00 | 75 | 1250.8 |
| 20260906063020 | 63 | 271 | 1.0 | 2.0 | 0.00 | 0.00 | 0.00 | 73 | 1250.8 |
| 20260906062515 | 65 | 266 | 1.0 | 4.0 | 0.00 | 0.00 | 0.00 | 71 | 1251.0 |
| 20260906062009 | 65 | 247 | 2.0 | 3.0 | 0.00 | 0.00 | 0.00 | 70 | 1250.9 |
| 20260906061505 | 65 | 58 | 0.0 | 1.0 | 0.00 | 0.00 | 0.00 | 71 | 1250.8 |
| 20260906060959 | 66 | 113 | 0.0 | 1.0 | 0.00 | 0.00 | 0.00 | 70 | 1251.0 |
| 20260906060456 | 66 | 47 | 0.0 | 1.0 | 0.00 | 0.00 | 0.00 | 70 | 1250.9 |
| 20260906055953 | 66 | 269 | 0.0 | 2.0 | 0.00 | 0.01 | 0.01 | 69 | 1250.8 |
| 20260906055448 | 66 | 313 | 1.0 | 2.0 | 0.00 | 0.01 | 0.01 | 69 | 1250.8 |
| 20260906054943 | 66 | 318 | 1.0 | 2.0 | 0.00 | 0.01 | 0.01 | 69 | 1250.9 |
| 20260906054443 | 66 | 66 | 0.0 | 1.0 | 0.00 | 0.01 | 0.01 | 68 | 1251.2 |
| 20260906053939 | 66 | 260 | 0.0 | 1.0 | 0.00 | 0.01 | 0.01 | 68 | 1251.0 |
| 20260906053435 | 66 | 119 | 0.0 | 2.0 | 0.00 | 0.01 | 0.01 | 67 | 1250.9 |
| 20260906052931 | 66 | 345 | 1.0 | 2.0 | 0.00 | 0.01 | 0.01 | 68 | 1251.2 |
| 20260906052427 | 64 | 6 | 2.0 | 3.0 | 0.00 | 0.01 | 0.01 | 69 | 1251.1 |
| 20260906051923 | 64 | 181 | 2.0 | 3.0 | 0.00 | 0.01 | 0.01 | 67 | 1251.1 |
| 20260906051424 | 62 | 223 | 1.0 | 3.0 | 0.00 | 0.01 | 0.01 | 73 | 1251.1 |
| 20260906050919 | 59 | 45 | 2.0 | 2.0 | 0.00 | 0.01 | 0.01 | 72 | 1251.2 |
| 20260906050419 | 58 | 83 | 2.0 | 2.0 | 0.00 | 0.01 | 0.01 | 73 | 1251.2 |
| 20260906045918 | 57 | 44 | 0.0 | 2.0 | 0.00 | 0.01 | 0.01 | 71 | 1251.1 |
| 20260906045417 | 58 | 198 | 2.0 | 2.0 | 0.00 | 0.01 | 0.01 | 71 | 1251.1 |
| 20260906044913 | 57 | 43 | 1.0 | 1.0 | 0.00 | 0.01 | 0.01 | 72 | 1251.1 |
| 20260906044414 | 57 | 8 | 2.0 | 2.0 | 0.00 | 0.01 | 0.01 | 71 | 1251.1 |
| 20260906043909 | 58 | 209 | 0.0 | 2.0 | 0.00 | 0.01 | 0.01 | 69 | 1251.2 |
| 20260906043405 | 59 | 269 | 0.0 | 2.0 | 0.00 | 0.01 | 0.01 | 68 | 1251.2 |
| 20260906042901 | 59 | 50 | 0.0 | 1.0 | 0.00 | 0.01 | 0.01 | 69 | 1251.0 |
| 20260906042359 | 59 | 241 | 1.0 | 1.0 | 0.00 | 0.01 | 0.01 | 68 | 1251.2 |
| 20260906041855 | 59 | 51 | 0.0 | 1.0 | 0.00 | 0.01 | 0.01 | 67 | 1250.9 |
| 20260906041350 | 59 | 230 | 0.0 | 0.0 | 0.00 | 0.01 | 0.01 | 66 | 1251.0 |
| 20260906040845 | 59 | 29 | 0.0 | 1.0 | 0.00 | 0.01 | 0.01 | 66 | 1251.2 |
| 20260906040340 | 59 | 37 | 0.0 | 0.0 | 0.00 | 0.01 | 0.01 | 66 | 1251.0 |
| 20260906035836 | 58 | 310 | 0.0 | 0.0 | 0.00 | 0.01 | 0.01 | 66 | 1251.1 |
| 20260906035331 | 58 | 203 | 1.0 | 1.0 | 0.00 | 0.01 | 0.01 | 66 | 1251.4 |
| 20260906034826 | 58 | 155 | 0.0 | 0.0 | 0.00 | 0.01 | 0.01 | 66 | 1251.2 |
| 20260906034321 | 58 | 31 | 0.0 | 1.0 | 0.00 | 0.01 | 0.01 | 65 | 1251.4 |
| 20260906033817 | 59 | 208 | 2.0 | 2.0 | 0.00 | 0.01 | 0.01 | 65 | 1251.2 |
| 20260906033316 | 59 | 191 | 0.0 | 0.0 | 0.00 | 0.01 | 0.01 | 64 | 1251.2 |
| 20260906032812 | 59 | 79 | 0.0 | 2.0 | 0.00 | 0.01 | 0.01 | 64 | 1251.2 |
| 20260906032307 | 59 | 307 | 0.0 | 2.0 | 0.00 | 0.01 | 0.01 | 63 | 1251.5 |
| 20260906031803 | 59 | 290 | 0.0 | 1.0 | 0.00 | 0.01 | 0.01 | 63 | 1251.6 |
| 20260906031258 | 59 | 5 | 0.0 | 1.0 | 0.00 | 0.01 | 0.01 | 62 | 1251.7 |
| 20260906030758 | 60 | 217 | 0.0 | 1.0 | 0.00 | 0.01 | 0.01 | 61 | 1251.6 |
| 20260906030253 | 60 | 246 | 0.0 | 2.0 | 0.00 | 0.01 | 0.01 | 61 | 1251.5 |
| 20260906025753 | 60 | 215 | 0.0 | 1.0 | 0.00 | 0.01 | 0.01 | 60 | 1251.4 |
| 20260906025247 | 60 | 212 | 0.0 | 1.0 | 0.00 | 0.01 | 0.01 | 60 | 1251.6 |
| 20260906024746 | 61 | 185 | 0.0 | 2.0 | 0.00 | 0.01 | 0.01 | 59 | 1251.5 |
| 20260906024245 | 61 | 66 | 0.0 | 0.0 | 0.00 | 0.01 | 0.01 | 59 | 1251.5 |
| 20260906023741 | 62 | 269 | 0.0 | 1.0 | 0.00 | 0.01 | 0.01 | 58 | 1251.2 |
| 20260906023236 | 63 | 309 | 0.0 | 0.0 | 0.00 | 0.01 | 0.01 | 56 | 1251.2 |
| 20260906022731 | 63 | 152 | 0.0 | 0.0 | 0.00 | 0.01 | 0.01 | 55 | 1250.9 |
| 20260906022227 | 64 | 13 | 0.0 | 0.0 | 0.00 | 0.01 | 0.01 | 55 | 1251.1 |
| 20260906021723 | 64 | 13 | 0.0 | 0.0 | 0.00 | 0.01 | 0.01 | 53 | 1251.0 |
| 20260906021222 | 65 | 76 | 0.0 | 1.0 | 0.00 | 0.01 | 0.01 | 53 | 1250.8 |
| 20260906020717 | 66 | 242 | 1.0 | 1.0 | 0.00 | 0.01 | 0.01 | 51 | 1250.8 |
| 20260906020211 | 66 | 142 | 0.0 | 1.0 | 0.00 | 0.01 | 0.01 | 50 | 1250.8 |
| 20260906015706 | 68 | 184 | 2.0 | 3.0 | 0.00 | 0.01 | 0.01 | 47 | 1250.8 |
| 20260906015205 | 69 | 299 | 0.0 | 2.0 | 0.00 | 0.01 | 0.01 | 42 | 1250.8 |
| 20260906014704 | 70 | 265 | 0.0 | 2.0 | 0.00 | 0.01 | 0.01 | 42 | 1250.6 |
| 20260906014201 | 71 | 0 | 0.0 | 2.0 | 0.00 | 0.01 | 0.01 | 41 | 1250.8 |
| 20260906013656 | 71 | 326 | 0.0 | 1.0 | 0.00 | 0.01 | 0.01 | 40 | 1250.8 |
| 20260906013151 | 72 | 102 | 0.0 | 1.0 | 0.00 | 0.01 | 0.01 | 39 | 1251.0 |
| 20260906012652 | 72 | 348 | 1.0 | 2.0 | 0.00 | 0.01 | 0.01 | 38 | 1250.8 |
| 20260906012151 | 72 | 58 | 0.0 | 0.0 | 0.00 | 0.01 | 0.01 | 39 | 1250.9 |
| 20260906011647 | 73 | 202 | 0.0 | 0.0 | 0.00 | 0.01 | 0.01 | 39 | 1250.8 |
| 20260906011142 | 74 | 4 | 0.0 | 2.0 | 0.00 | 0.01 | 0.01 | 37 | 1250.8 |
| 20260906010637 | 74 | 188 | 0.0 | 2.0 | 0.00 | 0.01 | 0.01 | 36 | 1251.0 |
| 20260906010134 | 75 | 141 | 2.0 | 3.0 | 0.00 | 0.01 | 0.01 | 35 | 1250.6 |
| 20260906005632 | 75 | 128 | 2.0 | 3.0 | 0.00 | 0.01 | 0.01 | 35 | 1250.8 |
| 20260906005127 | 76 | 144 | 0.0 | 4.0 | 0.00 | 0.01 | 0.01 | 35 | 1250.6 |
| 20260906004626 | 77 | 136 | 3.0 | 4.0 | 0.00 | 0.01 | 0.01 | 35 | 1251.0 |
| 20260906004120 | 77 | 163 | 4.0 | 4.0 | 0.00 | 0.01 | 0.01 | 33 | 1251.0 |
| 20260906003616 | 77 | 263 | 3.0 | 6.0 | 0.00 | 0.01 | 0.01 | 32 | 1250.9 |
| 20260906003113 | 78 | 119 | 0.0 | 3.0 | 0.00 | 0.01 | 0.01 | 32 | 1250.8 |
| 20260906002612 | 78 | 44 | 0.0 | 2.0 | 0.00 | 0.01 | 0.01 | 31 | 1251.0 |
| 20260906002108 | 78 | 205 | 1.0 | 3.0 | 0.00 | 0.01 | 0.01 | 32 | 1250.8 |
| 20260906001603 | 78 | 227 | 2.0 | 3.0 | 0.00 | 0.01 | 0.01 | 31 | 1250.8 |
| 20260906001103 | 78 | 194 | 2.0 | 3.0 | 0.00 | 0.01 | 0.01 | 31 | 1251.0 |
| 20260906000559 | 79 | 231 | 4.0 | 5.0 | 0.00 | 0.01 | 0.01 | 31 | 1250.6 |
| 20260906000054 | 80 | 123 | 3.0 | 4.0 | 0.00 | 0.01 | 0.01 | 30 | 1250.4 |
| 20260905235553 | 80 | 155 | 1.0 | 4.0 | 0.00 | 0.01 | 0.01 | 30 | 1250.3 |
| 20260905235048 | 82 | 157 | 0.0 | 6.0 | 0.00 | 0.01 | 0.01 | 29 | 1250.2 |
| 20260905234543 | 84 | 351 | 2.0 | 2.0 | 0.00 | 0.01 | 0.01 | 29 | 1250.1 |
| 20260905234039 | 83 | 175 | 1.0 | 2.0 | 0.00 | 0.01 | 0.01 | 29 | 1250.3 |
| 20260905233538 | 82 | 203 | 2.0 | 3.0 | 0.00 | 0.01 | 0.01 | 29 | 1250.1 |
| 20260905233038 | 83 | 0 | 4.0 | 4.0 | 0.00 | 0.01 | 0.01 | 30 | 1250.1 |
| 20260905232534 | 83 | 25 | 1.0 | 3.0 | 0.00 | 0.01 | 0.01 | 30 | 1250.3 |
| 20260905232029 | 82 | 141 | 1.0 | 3.0 | 0.00 | 0.01 | 0.01 | 31 | 1250.4 |
| 20260905231524 | 81 | 203 | 0.0 | 3.0 | 0.00 | 0.01 | 0.01 | 31 | 1250.3 |
| 20260905231021 | 81 | 354 | 4.0 | 4.0 | 0.00 | 0.01 | 0.01 | 31 | 1250.3 |
| 20260905230520 | 82 | 157 | 2.0 | 3.0 | 0.00 | 0.01 | 0.01 | 26 | 1250.2 |
| 20260905230018 | 82 | 186 | 3.0 | 6.0 | 0.00 | 0.01 | 0.01 | 26 | 1249.9 |
| 20260905225513 | 82 | 208 | 3.0 | 6.0 | 0.00 | 0.01 | 0.01 | 26 | 1250.1 |
| 20260905225009 | 82 | 211 | 4.0 | 5.0 | 0.00 | 0.01 | 0.01 | 26 | 1250.1 |
| 20260905224503 | 82 | 213 | 6.0 | 9.0 | 0.00 | 0.01 | 0.01 | 24 | 1250.2 |
| 20260905224003 | 83 | 228 | 8.0 | 11.0 | 0.00 | 0.01 | 0.01 | 24 | 1250.2 |
| 20260905223501 | 84 | 170 | 4.0 | 8.0 | 0.00 | 0.01 | 0.01 | 25 | 1250.2 |
| 20260905222955 | 83 | 153 | 2.0 | 6.0 | 0.00 | 0.01 | 0.01 | 25 | 1249.9 |
| 20260905222455 | 83 | 210 | 3.0 | 4.0 | 0.00 | 0.01 | 0.01 | 25 | 1249.8 |
| 20260905221951 | 84 | 205 | 2.0 | 3.0 | 0.00 | 0.01 | 0.01 | 24 | 1249.9 |
| 20260905221447 | 84 | 6 | 0.0 | 3.0 | 0.00 | 0.01 | 0.01 | 23 | 1249.9 |
| 20260905220943 | 85 | 214 | 6.0 | 6.0 | 0.00 | 0.01 | 0.01 | 25 | 1249.9 |
| 20260905220439 | 84 | 234 | 6.0 | 6.0 | 0.00 | 0.01 | 0.01 | 23 | 1249.8 |
| 20260905215938 | 83 | 238 | 3.0 | 4.0 | 0.00 | 0.01 | 0.01 | 28 | 1250.1 |
| 20260905215434 | 83 | 345 | 1.0 | 2.0 | 0.00 | 0.01 | 0.01 | 26 | 1249.8 |
| 20260905214930 | 83 | 325 | 0.0 | 1.0 | 0.00 | 0.01 | 0.01 | 28 | 1250.1 |
| 20260905214426 | 83 | 152 | 1.0 | 2.0 | 0.00 | 0.01 | 0.01 | 28 | 1250.1 |
| 20260905213926 | 82 | 235 | 0.0 | 3.0 | 0.00 | 0.01 | 0.01 | 29 | 1250.2 |
| 20260905213422 | 82 | 226 | 3.0 | 3.0 | 0.00 | 0.01 | 0.01 | 30 | 1250.3 |
| 20260905212917 | 82 | 190 | 0.0 | 2.0 | 0.00 | 0.01 | 0.01 | 30 | 1250.3 |
| 20260905212412 | 82 | 343 | 0.0 | 1.0 | 0.00 | 0.01 | 0.01 | 29 | 1250.2 |
| 20260905211911 | 81 | 269 | 0.0 | 3.0 | 0.00 | 0.01 | 0.01 | 29 | 1250.4 |
| 20260905211407 | 80 | 241 | 1.0 | 3.0 | 0.00 | 0.01 | 0.01 | 31 | 1250.4 |